User: anonymous   Login
Location: Unspecified
(0.0000°N, 0.0000°E)
Time: 07:42:38
(UTC+01:00)
Language:

Cosmos 494 Rocket - Orbit

View from above orbital plane
View from above orbital plane
View from above satellite
View from above satellite

Ground track
Ground track

The orbit data is extracted from the following two-line orbital elements,

1 06061U 72043B   17018.18989715  .00000032  00000-0  18227-4 0  9993
2 06061  74.0571  97.1783 0021326 265.8029  94.0689 14.40486962336710
Epoch (UTC): 18 January 2017 04:33:27
Eccentricity: 0.0021326
inclination: 74.0571°
perigee height: 741 km
apogee height: 772 km
right ascension of ascending node: 97.1783°
argument of perigee: 265.8029°
revolutions per day: 14.40486962
mean anomaly at epoch: 94.0689°
orbit number at epoch: 33671

The dashed part of the orbit path shows where the satellite is in the earth's shadow,  

DLR